TimeCDT,TemperatureF,Dew PointF,Humidity,Sea Level PressureIn,VisibilityMPH,Wind Direction,Wind SpeedMPH,Gust SpeedMPH,PrecipitationIn,Events,Conditions,WindDirDegrees,DateUTC
12:56 AM,53.1,46.0,77,30.14,-9999.0,NNW,5.8,-,N/A,,Unknown,340,2013-09-12 05:56:00
1:56 AM,52.0,45.0,77,30.15,-9999.0,NNW,4.6,-,N/A,,Unknown,330,2013-09-12 06:56:00
2:56 AM,53.1,46.0,77,30.15,-9999.0,NW,5.8,-,N/A,,Unknown,320,2013-09-12 07:56:00
3:56 AM,48.0,44.1,86,30.17,-9999.0,Calm,Calm,-,N/A,,Unknown,0,2013-09-12 08:56:00
4:56 AM,46.9,44.1,90,30.17,-9999.0,NW,3.5,-,N/A,,Unknown,320,2013-09-12 09:56:00
5:56 AM,46.0,44.1,93,30.19,-9999.0,NNW,4.6,-,N/A,,Unknown,340,2013-09-12 10:56:00
6:56 AM,48.0,45.0,89,30.22,-9999.0,NNW,8.1,-,N/A,,Unknown,340,2013-09-12 11:56:00
7:56 AM,52.0,48.0,86,30.24,-9999.0,North,5.8,-,N/A,,Unknown,350,2013-09-12 12:56:00
8:56 AM,61.0,50.0,67,30.25,-9999.0,NNW,8.1,-,N/A,,Unknown,340,2013-09-12 13:56:00
9:56 AM,64.9,50.0,58,30.26,-9999.0,NNW,5.8,-,N/A,,Unknown,340,2013-09-12 14:56:00
10:56 AM,69.1,50.0,51,30.27,-9999.0,NE,8.1,-,N/A,,Unknown,50,2013-09-12 15:56:00
11:56 AM,71.1,50.0,47,30.26,-9999.0,NE,9.2,-,N/A,,Unknown,40,2013-09-12 16:56:00
12:56 PM,73.0,50.0,44,30.26,-9999.0,NNE,6.9,-,N/A,,Unknown,20,2013-09-12 17:56:00
1:56 PM,73.0,50.0,44,30.24,-9999.0,Variable,6.9,-,N/A,,Unknown,0,2013-09-12 18:56:00
2:56 PM,75.0,48.9,40,30.23,-9999.0,North,8.1,17.3,N/A,,Unknown,360,2013-09-12 19:56:00
3:56 PM,73.0,48.9,42,30.23,-9999.0,NE,9.2,-,N/A,,Unknown,40,2013-09-12 20:56:00
4:56 PM,73.0,48.0,41,30.22,-9999.0,NE,5.8,16.1,N/A,,Unknown,40,2013-09-12 21:56:00
5:56 PM,73.0,48.0,41,30.22,-9999.0,NE,8.1,-,N/A,,Unknown,50,2013-09-12 22:56:00
6:56 PM,69.1,48.9,49,30.22,-9999.0,ENE,8.1,-,N/A,,Unknown,60,2013-09-12 23:56:00
7:56 PM,57.9,51.1,78,30.23,-9999.0,Calm,Calm,-,N/A,,Unknown,0,2013-09-13 00:56:00
8:56 PM,53.1,48.9,86,30.24,-9999.0,Calm,Calm,-,N/A,,Unknown,0,2013-09-13 01:56:00
9:56 PM,53.1,48.0,83,30.24,-9999.0,West,3.5,-,N/A,,Unknown,270,2013-09-13 02:56:00
10:56 PM,48.9,46.0,90,30.23,-9999.0,Calm,Calm,-,N/A,,Unknown,0,2013-09-13 03:56:00
11:56 PM,46.9,44.1,90,30.23,-9999.0,Calm,Calm,-,N/A,,Unknown,0,2013-09-13 04:56:00